User: anonymous   Login
Location: Unspecified
(0.0000°N, 0.0000°E)
Time: 09:59:58
(UTC+01:00)
Language:

Iridium 4 Rocket - Orbit

View from above orbital plane
View from above orbital plane
View from above satellite
View from above satellite

Ground track
Ground track

The orbit data is extracted from the following two-line orbital elements,

1 24797U 97020F   15064.70403604  .00000686  00000-0  14377-3 0  9992
2 24797 086.8950 298.8627 0225326 218.4583 217.2589 14.43495823937545
Epoch (UTC): 05 March 2015 16:53:48
Eccentricity: 0.0225326
inclination: 86.8950°
perigee height: 586 km
apogee height: 907 km
right ascension of ascending node: 298.8627°
argument of perigee: 218.4583°
revolutions per day: 14.43495823
mean anomaly at epoch: 217.2589°
orbit number at epoch: 93754

The dashed part of the orbit path shows where the satellite is in the earth's shadow,  

DLR